Regional Weather Roundup
Issued by NWS

Home | Current Version | Previous Version | Graphics & Text | Print | Product List | Glossary On
Versions: 1 2 3 4 5 6 7 8 9 10 11 12 13 14 15 16 17 18 19 20 21 22 23 24 25 26 27 28 29 30 31 32 33 34 35 36 37 38 39 40 41 42 43 44 45 46 47 48 49 50
000
ASUS43 KMPX 250410
RWRMN
WEATHER ROUNDUP FOR MINNESOTA
NATIONAL WEATHER SERVICE TWIN CITIES/CHANHASSEN MN
1000 PM CST SAT JAN 24 2015


NOTE: "FAIR" INDICATES FEW OR NO CLOUDS BELOW 12,000 FEET WITH NO
SIGNIFICANT WEATHER AND/OR OBSTRUCTIONS TO VISIBILITY. N/A MEANS
CURRENT SKY AND/OR WEATHER CONDITIONS ARE NOT AVAILABLE.

MNZ060>063-068>070-250500-
   Twin Cities Metro

CITY           SKY/WX    TMP DP  RH WIND       PRES   REMARKS
TWIN CITIES    CLOUDY    36  30  79 NE7       29.63R
ST PAUL        CLOUDY    36  31  82 NE6       29.64R
CRYSTAL        CLOUDY    37  31  78 NE7       29.63R
BLAINE         DRIZZLE   37  34  87 NE5       29.64R
LAKEVILLE      CLOUDY    32  30  93 NE5       29.61R WCI  27
EDEN PRAIRIE   CLOUDY    36  31  82 NE6       29.61R
SOUTH ST PAUL  CLOUDY    36  32  84 NE5       29.63R
LAKE ELMO      CLOUDY    34  32  93 NE6       29.64S WCI  29
$$
MNZ001>005-007-008-013>017-022>024-027-028-250500-
   Northwest Minnesota

CITY           SKY/WX    TMP DP  RH WIND       PRES   REMARKS
BEMIDJI        CLOUDY    22  14  70 N8        29.76R WCI  13
HALLOCK        CLOUDY    21  12  68 NE6       29.86R WCI  14
ROSEAU         CLOUDY    16   9  73 E13       29.86R WCI   2
WARROAD        CLOUDY    12   7  79 NE14      29.87R WCI  -3
THIEF RVR FALL CLOUDY    19  12  73 NE12      29.80R WCI   7
CROOKSTON      CLOUDY    21  16  79 NE10      29.82R WCI  10
FOSSTON        CLOUDY    21  14  73 NE13      29.77S WCI   9
DETROIT LAKES  MIX PCPN  32  30  93 NE5       29.73R WCI  27
MOORHEAD       RAIN      32  32 100 N13       29.76R WCI  22
PARK RAPIDS    CLOUDY    31  25  78 NE6       29.71R WCI  25
MAHNOMEN       CLOUDY    28  23  81 NE9       29.74R WCI  19
$$
MNZ006-009>011-018-025>026-250500-
   North Central Minnesota

CITY           SKY/WX    TMP DP  RH WIND       PRES   REMARKS
BAUDETTE       CLOUDY    13   5  70 E10       29.84R WCI   0
FLAG ISLAND    CLOUDY    10   1  67 NE7       29.88R WCI   0
INTL FALLS     PTCLDY     8   1  73 NE7       29.86R WCI  -3
WASKISH        CLOUDY    16   9  73 NE10      29.82R WCI   3
BIG FORK       PTCLDY    16   9  73 NE10      29.80R WCI   3
LONGVILLE      CLOUDY    28  21  74 NE6       29.73R WCI  22
GRAND RAPIDS   CLOUDY    25  16  68 N7        29.74R WCI  17
CRANE LAKE     CLEAR      9   1  72 CALM      29.87R
ORR            CLEAR     10   3  72 CALM      29.79S
COOK           CLOUDY    12   7  79 NE6       29.81R WCI   3
WALKER         CLOUDY    26  20  77 NE8       29.75R WCI  18
$$
MNZ012-019>021-037-250500-
   Northeast Minnesota

CITY           SKY/WX    TMP DP  RH WIND       PRES   REMARKS
DULUTH         CLOUDY    23  17  78 E20G25    29.76R WCI   8
ELY            CLOUDY     9   3  78 E5        29.82R WCI   0
HIBBING        CLOUDY    23  13  65 NE8       29.76R WCI  14
EVELETH        CLOUDY    21  14  73 NE10      29.79R WCI  10
DULUTH HARBOR  CLOUDY    27  21  80 NE24      29.82R WCI  12
TWO HARBORS    CLOUDY    25  18  74 E15G22    29.79R WCI  12
SILVER BAY     CLOUDY    21  12  68 NE10      29.81R WCI  10
GRAND MARAIS     N/A     11  -2  56 N6        29.90R WCI   1
G MARAIS ARPRT PTCLDY     3  -6  66 N8        29.79R WCI -10
$$
MNZ029>031-032-039>041-046>048-054>057-064-250500-
   West Central Minnesota

CITY           SKY/WX    TMP DP  RH WIND       PRES   REMARKS
FERGUS FALLS   LGT SNOW  32  32 100 N8        29.74R WCI  25
WHEATON        LGT SNOW  30  30 100 N12       29.73R WCI  21
MORRIS         LGT SNOW  34  32  93 N9        29.67R VSB 1   WCI  26
ALEXANDRIA     LGT SNOW  33  31  92 NE12      29.67R FOG     WCI  24
ELBOW LAKE     LGT SNOW  32  32  99 N7        29.69R WCI  25
WADENA         CLOUDY    32  28  86 NE8       29.69R WCI  25
GLENWOOD       LGT SNOW  32  32 100 N12       29.66R WCI  23
APPLETON       CLOUDY    34  32  93 N13       29.66R WCI  25
BENSON         LGT SNOW  34  32  93 NE8       29.65R WCI  27
ORTONVILLE     LGT SNOW  32  30  93 N15       29.68R WCI  22
MADISON        LGT SNOW  36  36 100 N13       29.65R
WILLMAR        CLOUDY    36  30  80 N6        29.65R
$$
MNZ033>034-036-042>043-049>051-058-059-250500-
   Central Minnesota

CITY           SKY/WX    TMP DP  RH WIND       PRES   REMARKS
ST CLOUD       CLOUDY    35  31  85 NE8       29.65R WCI  29
SAUK CENTRE    LGT SNOW  32  32  99 N8        29.66R WCI  25
PAYNESVILLE    LGT RAIN  32  31  98 N6        29.64R WCI  26
AITKIN         CLOUDY    32  25  74 E12       29.71R WCI  23
PINE RIVER     CLOUDY    30  27  86 N8        29.75R WCI  23
BRAINERD       CLOUDY    33  28  81 NE10      29.70R WCI  25
STAPLES        CLOUDY    34  28  80 NE5       29.69R WCI  30
LONG PRAIRIE   LGT SNOW  32  32 100 N7        29.67R WCI  26
LITTLE FALLS   CLOUDY    34  30  86 CALM      29.68R
LITCHFIELD     CLOUDY    36  34  93 N5        29.63R
BUFFALO        DRIZZLE   35  31  86 NE9       29.64R WCI  27
MAPLE LAKE     DRIZZLE   36  33  90 NE6       29.64R
$$
MNZ037-044-045-052-053-250500-
   East Central Minnesota

CITY           SKY/WX    TMP DP  RH WIND       PRES   REMARKS
PRINCETON      DRIZZLE   37  30  75 NE7       29.66R
MORA           CLOUDY    32  28  86 NE8       29.70R WCI  25
CAMBRIDGE      CLOUDY    37  28  70 NE7       29.65R
RUSH CITY      CLOUDY    34  29  83 NE13G18   29.68R WCI  25
MOOSE LAKE     CLOUDY    28  21  74 NE8G16    29.73R WCI  20
HINCKLEY       CLOUDY    32  27  80 NE8       29.71R WCI  25
CLOQUET        CLOUDY    25  19  80 E14G22    29.76R WCI  13
MCGREGOR       CLOUDY    28  25  86 E14       29.74R WCI  17
$$
MNZ071>073-080-081-089-090-097-098-250500-
   Southwest Minnesota

CITY           SKY/WX    TMP DP  RH WIND       PRES   REMARKS
MONTEVIDEO     FLURRIES  34  34 100 NE9       29.65R WCI  26
GRANITE FALLS  LGT SNOW  32  32  99 CALM      29.64R
CANBY          CLOUDY    32  32  99 N13G18    29.65R WCI  23
MARSHALL       CLOUDY    32  28  86 N10       29.63R WCI  24
REDWOOD FALLS  CLOUDY    35  32  88 N6        29.61R WCI  30
OLIVIA         LGT RAIN  32  32 100 N9        29.61R WCI  24
PIPESTONE      DRIZZLE   34  34 100 NE12      29.57R WCI  25
WINDOM         LGT SNOW  34  34 100 N6        29.58R WCI  29
WORTHINGTON    CLOUDY    34  30  86 N10       29.57S WCI  26
JACKSON        LGT RAIN  34  32  93 N9        29.58R WCI  26
TRACY          LGT SNOW  33  33  98 N8        29.60R WCI  26
SLAYTON        MIX PCPN  33  32  98 N9        29.59R WCI  25
$$
MNZ065>067-074>077-082>085-091>093-250500-
   South Central Minnesota

CITY           SKY/WX    TMP DP  RH WIND       PRES   REMARKS
MANKATO        CLOUDY    36  30  80 NE6       29.59R
NEW ULM        CLOUDY    34  32  93 NW3       29.61R
ST JAMES       LGT RAIN  36  34  93 N5        29.60R
FAIRMONT       CLOUDY    34  30  86 CALM      29.58R
GLENCOE        CLOUDY    33  33  99 CALM      29.60S
FARIBAULT      CLOUDY    34  32  93 CALM      29.60R
OWATONNA       CLOUDY    34  32  93 E3        29.59R
WASECA         CLOUDY    34  32  93 NE3       29.59S
ALBERT LEA     CLOUDY    34  34 100 CALM      29.57R
$$
MNZ078>079-086>088-094>096-250500-
   Southeast Minnesota

CITY           SKY/WX    TMP DP  RH WIND       PRES   REMARKS
ROCHESTER      CLOUDY    33  31  92 NE5       29.59S WCI  29
RED WING       CLOUDY    34  30  86 CALM      29.62S
STANTON        CLOUDY    35  32  89 E7        29.59S WCI  29
DODGE CENTER   CLOUDY    34  34 100 CALM      29.58R FOG
WINONA         CLOUDY    32  32 100 CALM      29.64S
AUSTIN         CLOUDY    34  30  86 CALM      29.57S FOG
PRESTON        MOCLDY    33  31  93 E6        29.59R WCI  27
$$
ABBREVIATIONS USED IN REMARKS
   TC - TEMPERATURES IN CELSIUS
  WCI - WIND CHILL INDEX
   HX - HEAT INDEX
  VSB - VISIBILITY
$$



USA.gov is the U.S. government's official web portal to all federal, state and local government web resources and services.